This demonstration page uses our WeatherBlox Daily Observations layout. Learn more.

41.55636, -103.73856

Hourly Observations for September 6, 2017

Temp ( °F °C ) Dew Point ( °F °C ) Humidity (%) Winds ( mph kmh ) Pressure ( in mb ) Visibility ( mi km ) Precip ( " mm )
12:53 am 00:53 Clear 46 7.8 31 -0.6 56 56 S 5 7 30.25 1024 10 16.0934 0 0
1:53 am 01:53 Clear 44 6.7 35 1.7 71 71 NE 3 6 30.22 1024 10 16.0934 0 0
2:53 am 02:53 Clear 44 6.7 32 0 63 63 Calm 30.22 1023 10 16.0934 0 0
3:53 am 03:53 Clear 43 6.1 32 0 65 65 E 3 6 30.21 1023 10 16.0934 0 0
4:53 am 04:53 Clear 42 5.6 34 1.1 73 73 Calm 30.21 1023 10 16.0934 0 0
5:53 am 05:53 Clear 40 4.4 35 1.7 83 83 undefined N/A 30.21 1023 10 16.0934 0 0
6:53 am 06:53 Sunny 41 5 32 0 70 70 Calm 30.23 1024 10 16.0934 0 0
7:53 am 07:53 Sunny 48 8.9 33 0.6 56 56 Calm 30.24 1024 10 16.0934 0 0
8:53 am 08:53 Sunny 54 12.2 32 0 43 43 Calm 30.23 1024 10 16.0934 0 0
9:53 am 09:53 Sunny 60 15.6 33 0.6 36 36 Calm 30.21 1023 10 16.0934 0 0
10:53 am 10:53 Sunny 67 19.4 31 -0.6 26 26 VRB 3 6 30.19 1022 10 16.0934 0 0
11:53 am 11:53 Sunny 73 22.8 35 1.7 25 25 VRB 3 6 30.16 1021 10 16.0934 0 0
12:53 pm 12:53 Sunny 72 22.2 30 -1.1 21 21 W 3 6 30.14 1021 10 16.0934 0 0
1:53 pm 13:53 Sunny 75 23.9 31 -0.6 20 20 undefined N/A 30.11 1020 10 16.0934 0 0
2:53 pm 14:53 Sunny 76 24.4 29 -1.7 18 18 E 6 9 30.09 1019 10 16.0934 0 0
3:53 pm 15:53 Sunny 76 24.4 30 -1.1 18 18 ESE 3 6 30.08 1019 10 16.0934 0 0
4:53 pm 16:53 Sunny 77 25 28 -2.2 16 16 ESE 5 7 30.06 1018 10 16.0934 0 0
5:53 pm 17:53 Sunny 74 23.3 35 1.7 24 24 ESE 7 11 30.06 1018 10 16.0934 0 0
6:53 pm 18:53 Sunny 68 20 45 7.2 44 44 ESE 6 9 30.07 1018 10 16.0934 0 0
7:53 pm 19:53 Clear 63 17.2 42 5.6 47 47 ESE 6 9 30.07 1018 8 12.87472 0 0
8:53 pm 20:53 Clear 61 16.1 41 5 48 48 E 8 13 30.08 1019 9 14.48406 0 0
9:53 pm 21:53 Clear 59 15 39 3.9 48 48 ESE 8 13 30.08 1019 10 16.0934 0 0
10:53 pm 22:53 Clear 57 13.9 39 3.9 51 51 ESE 8 13 30.07 1018 10 16.0934 0 0
11:53 pm 23:53 Clear 58 14.4 37 2.8 46 46 E 9 15 30.05 1018 10 16.0934 0 0

Powered by AerisWeather